Time,TemperatureF,DewpointF,PressureIn,WindDirection,WindDirectionDegrees,WindSpeedMPH,WindSpeedGustMPH,Humidity,HourlyPrecipIn,Conditions,Clouds,dailyrainin,SoftwareType,DateUTC
2013-12-16 00:02:00,30.0,19.0,29.90,WNW,302,7.0,31.0,63,0.00,,,0.21,meteohub,2013-12-16 05:02:00,
2013-12-16 00:07:00,30.0,19.0,29.90,West,280,12.0,31.0,63,0.00,,,0.00,meteohub,2013-12-16 05:07:00,
2013-12-16 00:12:00,29.8,18.9,29.87,SSW,212,12.0,29.0,63,0.00,,,0.00,meteohub,2013-12-16 05:12:00,
2013-12-16 00:17:00,29.8,18.9,29.87,SW,235,4.0,29.0,63,0.00,,,0.00,meteohub,2013-12-16 05:17:00,
2013-12-16 00:22:00,29.7,18.7,29.87,NW,325,7.0,29.0,63,0.00,,,0.00,meteohub,2013-12-16 05:22:00,
2013-12-16 00:27:00,29.7,19.0,29.90,NNW,348,8.0,21.0,64,0.00,,,0.00,meteohub,2013-12-16 05:27:00,
2013-12-16 00:37:00,29.5,18.5,29.90,SW,235,16.0,33.0,63,0.00,,,0.00,meteohub,2013-12-16 05:37:00,
2013-12-16 00:42:00,29.5,18.1,29.90,WSW,258,30.0,30.0,62,0.00,,,0.00,meteohub,2013-12-16 05:42:00,
2013-12-16 00:47:00,29.3,18.0,29.90,WSW,258,5.0,30.0,62,0.00,,,0.00,meteohub,2013-12-16 05:47:00,
2013-12-16 00:52:00,29.3,18.0,29.90,SW,235,4.0,30.0,62,0.00,,,0.00,meteohub,2013-12-16 05:52:00,
2013-12-16 00:57:00,29.1,17.4,29.87,WNW,302,8.0,30.0,61,0.00,,,0.00,meteohub,2013-12-16 05:57:00,
2013-12-16 01:02:00,29.1,17.4,29.87,West,280,17.0,21.0,61,0.00,,,0.00,meteohub,2013-12-16 06:02:00,
2013-12-16 01:07:00,29.1,17.4,29.87,WSW,258,13.0,21.0,61,0.00,,,0.00,meteohub,2013-12-16 06:07:00,
2013-12-16 01:12:00,29.1,17.4,29.87,SSW,212,5.0,21.0,61,0.00,,,0.00,meteohub,2013-12-16 06:12:00,
2013-12-16 01:17:00,28.9,17.2,29.87,NNW,348,11.0,21.0,61,0.00,,,0.00,meteohub,2013-12-16 06:17:00,
2013-12-16 01:22:00,28.9,16.9,29.87,WSW,258,15.0,16.0,60,0.00,,,0.00,meteohub,2013-12-16 06:22:00,
2013-12-16 01:27:00,28.9,16.9,29.90,West,280,14.0,20.0,60,0.00,,,0.00,meteohub,2013-12-16 06:27:00,
2013-12-16 01:32:00,28.9,16.9,29.90,WSW,258,7.0,20.0,60,0.00,,,0.00,meteohub,2013-12-16 06:32:00,
2013-12-16 01:37:00,28.9,16.9,29.90,SSW,212,10.0,34.0,60,0.00,,,0.00,meteohub,2013-12-16 06:37:00,
2013-12-16 01:42:00,28.9,16.5,29.87,SW,235,12.0,34.0,59,0.00,,,0.00,meteohub,2013-12-16 06:42:00,
2013-12-16 01:47:00,28.9,16.5,29.87,WSW,258,7.0,15.0,59,0.00,,,0.00,meteohub,2013-12-16 06:47:00,
2013-12-16 01:52:00,28.9,16.5,29.87,South,190,12.0,17.0,59,0.00,,,0.00,meteohub,2013-12-16 06:52:00,
2013-12-16 01:57:00,28.9,16.5,29.90,SSW,212,11.0,17.0,59,0.00,,,0.00,meteohub,2013-12-16 06:57:00,
2013-12-16 02:02:00,28.9,16.5,29.90,SSE,168,4.0,21.0,59,0.00,,,0.00,meteohub,2013-12-16 07:02:00,
2013-12-16 02:07:00,28.9,16.5,29.90,NE,55,5.0,21.0,59,0.00,,,0.00,meteohub,2013-12-16 07:07:00,
2013-12-16 02:12:00,29.1,16.5,29.93,WSW,258,11.0,21.0,59,0.00,,,0.00,meteohub,2013-12-16 07:12:00,
2013-12-16 02:17:00,28.9,16.5,29.93,WNW,302,9.0,21.0,59,0.00,,,0.00,meteohub,2013-12-16 07:17:00,
2013-12-16 02:22:00,28.9,16.5,29.93,SSW,212,15.0,16.0,59,0.00,,,0.00,meteohub,2013-12-16 07:22:00,
2013-12-16 02:27:00,28.9,16.5,29.90,West,280,8.0,22.0,59,0.00,,,0.00,meteohub,2013-12-16 07:27:00,
2013-12-16 02:32:00,28.9,16.5,29.90,WSW,258,10.0,22.0,59,0.00,,,0.00,meteohub,2013-12-16 07:32:00,
2013-12-16 02:37:00,28.9,16.9,29.90,SW,235,8.0,22.0,60,0.00,,,0.00,meteohub,2013-12-16 07:37:00,
2013-12-16 02:42:00,28.9,16.9,29.93,NW,325,8.0,17.0,60,0.00,,,0.00,meteohub,2013-12-16 07:42:00,
2013-12-16 02:47:00,28.9,16.9,29.93,SW,235,10.0,17.0,60,0.00,,,0.00,meteohub,2013-12-16 07:47:00,
2013-12-16 02:52:00,28.9,16.9,29.93,SW,235,16.0,28.0,60,0.00,,,0.00,meteohub,2013-12-16 07:52:00,
2013-12-16 02:57:00,28.9,16.9,29.93,SW,235,7.0,28.0,60,0.00,,,0.00,meteohub,2013-12-16 07:57:00,
2013-12-16 03:02:00,28.9,16.9,29.93,WSW,258,7.0,21.0,60,0.00,,,0.00,meteohub,2013-12-16 08:02:00,
2013-12-16 03:07:00,28.9,16.9,29.93,SSW,212,3.0,21.0,60,0.00,,,0.00,meteohub,2013-12-16 08:07:00,
2013-12-16 03:12:00,28.8,16.7,29.93,SW,235,15.0,25.0,60,0.00,,,0.00,meteohub,2013-12-16 08:12:00,
2013-12-16 03:17:00,28.8,17.1,29.93,NW,325,9.0,25.0,61,0.00,,,0.00,meteohub,2013-12-16 08:17:00,
2013-12-16 03:22:00,28.8,16.7,29.93,WSW,258,7.0,22.0,60,0.00,,,0.00,meteohub,2013-12-16 08:22:00,
2013-12-16 03:27:00,28.8,16.7,29.93,SSE,168,4.0,24.0,60,0.00,,,0.00,meteohub,2013-12-16 08:27:00,
2013-12-16 03:32:00,28.8,17.1,29.93,WSW,258,16.0,24.0,61,0.00,,,0.00,meteohub,2013-12-16 08:32:00,
2013-12-16 03:37:00,28.8,17.1,29.93,West,280,12.0,24.0,61,0.00,,,0.00,meteohub,2013-12-16 08:37:00,
2013-12-16 03:42:00,28.9,17.2,29.93,WSW,258,7.0,26.0,61,0.00,,,0.00,meteohub,2013-12-16 08:42:00,
2013-12-16 03:47:00,28.9,16.9,29.93,West,280,8.0,26.0,60,0.00,,,0.00,meteohub,2013-12-16 08:47:00,
2013-12-16 03:52:00,28.8,17.1,29.93,North,10,8.0,26.0,61,0.00,,,0.00,meteohub,2013-12-16 08:52:00,
2013-12-16 03:57:00,28.8,17.1,29.93,ESE,122,6.0,24.0,61,0.00,,,0.00,meteohub,2013-12-16 08:57:00,
2013-12-16 04:02:00,28.8,17.1,29.93,NNW,348,12.0,24.0,61,0.00,,,0.00,meteohub,2013-12-16 09:02:00,
2013-12-16 04:07:00,28.8,17.1,29.93,West,280,13.0,17.0,61,0.00,,,0.00,meteohub,2013-12-16 09:07:00,
2013-12-16 04:12:00,28.8,17.1,29.96,WNW,302,24.0,25.0,61,0.00,,,0.00,meteohub,2013-12-16 09:12:00,
2013-12-16 04:17:00,28.8,17.1,29.96,SSW,212,10.0,25.0,61,0.00,,,0.00,meteohub,2013-12-16 09:17:00,
2013-12-16 04:22:00,28.8,17.1,29.96,SSE,168,11.0,25.0,61,0.00,,,0.00,meteohub,2013-12-16 09:22:00,
2013-12-16 04:27:00,28.8,17.1,29.90,WSW,258,12.0,24.0,61,0.00,,,0.00,meteohub,2013-12-16 09:27:00,
2013-12-16 04:32:00,28.8,17.1,29.90,NW,325,34.0,34.0,61,0.00,,,0.00,meteohub,2013-12-16 09:32:00,
2013-12-16 04:37:00,28.8,17.1,29.90,West,280,13.0,34.0,61,0.00,,,0.00,meteohub,2013-12-16 09:37:00,
2013-12-16 04:42:00,28.6,16.9,29.93,WSW,258,7.0,34.0,61,0.00,,,0.00,meteohub,2013-12-16 09:42:00,
2013-12-16 04:47:00,28.6,17.2,29.93,SW,235,12.0,34.0,62,0.00,,,0.00,meteohub,2013-12-16 09:47:00,
2013-12-16 04:52:00,28.6,17.2,29.93,WSW,258,10.0,26.0,62,0.00,,,0.00,meteohub,2013-12-16 09:52:00,
2013-12-16 04:57:00,28.6,17.6,29.93,SSW,212,26.0,26.0,63,0.00,,,0.00,meteohub,2013-12-16 09:57:00,
2013-12-16 05:02:00,28.6,17.6,29.93,WNW,302,9.0,26.0,63,0.00,,,0.00,meteohub,2013-12-16 10:02:00,
2013-12-16 05:07:00,28.6,17.6,29.93,NNE,32,6.0,26.0,63,0.00,,,0.00,meteohub,2013-12-16 10:07:00,
2013-12-16 05:12:00,28.6,17.6,29.90,SSW,212,12.0,26.0,63,0.00,,,0.00,meteohub,2013-12-16 10:12:00,
2013-12-16 05:17:00,28.4,17.8,29.90,WNW,302,39.0,39.0,64,0.00,,,0.00,meteohub,2013-12-16 10:17:00,
2013-12-16 05:22:00,28.6,18.0,29.90,NW,325,11.0,39.0,64,0.00,,,0.00,meteohub,2013-12-16 10:22:00,
2013-12-16 05:27:00,28.6,18.0,29.93,SW,235,7.0,39.0,64,0.00,,,0.00,meteohub,2013-12-16 10:27:00,
2013-12-16 05:32:00,28.4,17.8,29.93,WNW,302,9.0,39.0,64,0.00,,,0.00,meteohub,2013-12-16 10:32:00,
2013-12-16 05:37:00,28.4,17.8,29.93,WNW,302,8.0,26.0,64,0.00,,,0.00,meteohub,2013-12-16 10:37:00,
2013-12-16 05:42:00,28.4,17.8,29.93,SW,235,13.0,26.0,64,0.00,,,0.00,meteohub,2013-12-16 10:42:00,
2013-12-16 05:47:00,28.4,18.1,29.93,WNW,302,10.0,26.0,65,0.00,,,0.00,meteohub,2013-12-16 10:47:00,
2013-12-16 05:52:00,28.4,18.1,29.93,WSW,258,15.0,20.0,65,0.00,,,0.00,meteohub,2013-12-16 10:52:00,
2013-12-16 05:57:00,28.4,18.1,29.90,NNE,32,10.0,19.0,65,0.00,,,0.00,meteohub,2013-12-16 10:57:00,
2013-12-16 06:02:00,28.4,18.1,29.90,WNW,302,8.0,30.0,65,0.00,,,0.00,meteohub,2013-12-16 11:02:00,
2013-12-16 06:07:00,28.4,18.1,29.90,NW,325,11.0,30.0,65,0.00,,,0.00,meteohub,2013-12-16 11:07:00,
2013-12-16 06:12:00,28.2,18.0,29.90,NW,325,7.0,30.0,65,0.00,,,0.00,meteohub,2013-12-16 11:12:00,
2013-12-16 06:17:00,28.2,18.0,29.90,SSE,168,8.0,22.0,65,0.00,,,0.00,meteohub,2013-12-16 11:17:00,
2013-12-16 06:22:00,28.2,18.0,29.90,ESE,122,10.0,22.0,65,0.00,,,0.00,meteohub,2013-12-16 11:22:00,
2013-12-16 06:27:00,28.2,18.0,29.93,SSE,168,8.0,15.0,65,0.00,,,0.00,meteohub,2013-12-16 11:27:00,
2013-12-16 06:32:00,28.2,18.3,29.93,South,190,3.0,15.0,66,0.00,,,0.00,meteohub,2013-12-16 11:32:00,
2013-12-16 06:37:00,28.2,18.3,29.93,North,10,17.0,17.0,66,0.00,,,0.00,meteohub,2013-12-16 11:37:00,
2013-12-16 06:42:00,28.0,18.1,29.93,SW,235,4.0,17.0,66,0.00,,,0.00,meteohub,2013-12-16 11:42:00,
2013-12-16 06:47:00,28.0,18.1,29.93,West,280,4.0,22.0,66,0.00,,,0.00,meteohub,2013-12-16 11:47:00,
2013-12-16 06:52:00,28.0,18.1,29.93,NNW,348,7.0,22.0,66,0.00,,,0.00,meteohub,2013-12-16 11:52:00,
2013-12-16 06:57:00,28.0,18.1,29.96,SE,145,4.0,17.0,66,0.00,,,0.00,meteohub,2013-12-16 11:57:00,
2013-12-16 07:02:00,28.0,18.1,29.96,West,280,2.0,21.0,66,0.00,,,0.00,meteohub,2013-12-16 12:02:00,
2013-12-16 07:07:00,28.0,18.1,29.96,SW,235,9.0,22.0,66,0.00,,,0.00,meteohub,2013-12-16 12:07:00,
2013-12-16 07:12:00,28.0,18.1,29.96,SW,235,7.0,22.0,66,0.00,,,0.00,meteohub,2013-12-16 12:12:00,
2013-12-16 07:17:00,28.0,18.1,29.96,North,10,4.0,12.0,66,0.00,,,0.00,meteohub,2013-12-16 12:17:00,
2013-12-16 07:22:00,28.0,18.1,29.96,WSW,258,13.0,13.0,66,0.00,,,0.00,meteohub,2013-12-16 12:22:00,
2013-12-16 07:27:00,28.0,17.8,29.96,WNW,302,19.0,19.0,65,0.00,,,0.00,meteohub,2013-12-16 12:27:00,
2013-12-16 07:32:00,28.0,17.8,29.96,SSE,168,7.0,19.0,65,0.00,,,0.00,meteohub,2013-12-16 12:32:00,
2013-12-16 07:37:00,28.0,17.8,29.96,SSE,168,7.0,22.0,65,0.00,,,0.00,meteohub,2013-12-16 12:37:00,
2013-12-16 07:42:00,28.0,17.8,29.96,West,280,6.0,22.0,65,0.00,,,0.00,meteohub,2013-12-16 12:42:00,
2013-12-16 07:47:00,28.0,17.8,29.96,SSW,212,7.0,22.0,65,0.00,,,0.00,meteohub,2013-12-16 12:47:00,
2013-12-16 07:52:00,28.0,17.8,29.96,SSW,212,9.0,18.0,65,0.00,,,0.00,meteohub,2013-12-16 12:52:00,
2013-12-16 07:57:00,27.9,17.6,29.96,SSW,212,7.0,18.0,65,0.00,,,0.00,meteohub,2013-12-16 12:57:00,
2013-12-16 08:02:00,27.9,18.0,29.96,SSW,212,5.0,12.0,66,0.00,,,0.00,meteohub,2013-12-16 13:02:00,
2013-12-16 08:07:00,27.9,18.0,29.96,SSE,168,9.0,17.0,66,0.00,,,0.00,meteohub,2013-12-16 13:07:00,
2013-12-16 08:12:00,27.9,18.0,29.99,SSW,212,5.0,17.0,66,0.00,,,0.00,meteohub,2013-12-16 13:12:00,
2013-12-16 08:17:00,27.9,18.0,29.99,South,190,9.0,19.0,66,0.00,,,0.00,meteohub,2013-12-16 13:17:00,
2013-12-16 08:22:00,28.0,18.1,29.99,SSW,212,5.0,19.0,66,0.00,,,0.00,meteohub,2013-12-16 13:22:00,
2013-12-16 08:27:00,28.0,18.1,29.99,SSW,212,3.0,19.0,66,0.00,,,0.00,meteohub,2013-12-16 13:27:00,
2013-12-16 08:32:00,28.0,18.1,29.99,WNW,302,6.0,12.0,66,0.00,,,0.00,meteohub,2013-12-16 13:32:00,
2013-12-16 08:37:00,28.2,18.3,29.99,WSW,258,7.0,20.0,66,0.00,,,0.00,meteohub,2013-12-16 13:37:00,
2013-12-16 08:42:00,28.2,18.3,29.99,WNW,302,7.0,20.0,66,0.00,,,0.00,meteohub,2013-12-16 13:42:00,
2013-12-16 08:47:00,28.4,18.5,29.99,SW,235,6.0,13.0,66,0.00,,,0.00,meteohub,2013-12-16 13:47:00,
2013-12-16 08:52:00,28.6,18.3,29.99,WSW,258,5.0,12.0,65,0.00,,,0.00,meteohub,2013-12-16 13:52:00,
2013-12-16 08:57:00,28.6,18.3,29.99,SSW,212,4.0,12.0,65,0.00,,,0.00,meteohub,2013-12-16 13:57:00,
2013-12-16 09:02:00,28.8,18.5,29.99,SSE,168,3.0,12.0,65,0.00,,,0.00,meteohub,2013-12-16 14:02:00,
2013-12-16 09:07:00,29.1,18.9,29.99,WSW,258,5.0,11.0,65,0.00,,,0.00,meteohub,2013-12-16 14:07:00,
2013-12-16 09:12:00,29.3,19.0,29.96,WSW,258,4.0,13.0,65,0.00,,,0.00,meteohub,2013-12-16 14:12:00,
2013-12-16 09:17:00,29.5,19.2,29.96,SW,235,3.0,13.0,65,0.00,,,0.00,meteohub,2013-12-16 14:17:00,
2013-12-16 09:22:00,29.7,19.4,29.96,North,10,9.0,12.0,65,0.00,,,0.00,meteohub,2013-12-16 14:22:00,
2013-12-16 09:27:00,29.8,19.6,29.99,NNW,348,5.0,13.0,65,0.00,,,0.00,meteohub,2013-12-16 14:27:00,
2013-12-16 09:32:00,30.0,19.8,29.99,SE,145,3.0,13.0,65,0.00,,,0.00,meteohub,2013-12-16 14:32:00,
2013-12-16 09:37:00,30.2,19.9,29.99,WSW,258,4.0,13.0,65,0.00,,,0.00,meteohub,2013-12-16 14:37:00,
2013-12-16 09:42:00,30.4,19.8,29.99,South,190,3.0,13.0,64,0.00,,,0.00,meteohub,2013-12-16 14:42:00,
2013-12-16 09:47:00,30.9,20.1,29.99,WNW,302,9.0,12.0,64,0.00,,,0.00,meteohub,2013-12-16 14:47:00,
2013-12-16 09:52:00,30.7,19.9,29.99,WSW,258,9.0,12.0,64,0.00,,,0.00,meteohub,2013-12-16 14:52:00,
2013-12-16 09:57:00,31.1,19.9,29.99,SSW,212,3.0,17.0,63,0.00,,,0.00,meteohub,2013-12-16 14:57:00,
2013-12-16 10:02:00,31.1,19.9,29.99,SSW,212,4.0,17.0,63,0.00,,,0.00,meteohub,2013-12-16 15:02:00,
2013-12-16 10:07:00,31.3,20.1,29.99,SSW,212,12.0,15.0,63,0.00,,,0.00,meteohub,2013-12-16 15:07:00,
2013-12-16 10:12:00,31.3,20.1,29.99,SSW,212,9.0,15.0,63,0.00,,,0.00,meteohub,2013-12-16 15:12:00,
2013-12-16 10:17:00,31.5,20.3,29.96,East,100,9.0,15.0,63,0.00,,,0.00,meteohub,2013-12-16 15:17:00,
2013-12-16 10:22:00,31.6,20.5,29.96,WNW,302,5.0,12.0,63,0.00,,,0.00,meteohub,2013-12-16 15:22:00,
2013-12-16 10:27:00,31.6,20.1,29.96,South,190,4.0,13.0,62,0.00,,,0.00,meteohub,2013-12-16 15:27:00,
2013-12-16 10:32:00,31.8,20.3,29.96,SE,145,6.0,13.0,62,0.00,,,0.00,meteohub,2013-12-16 15:32:00,
2013-12-16 10:37:00,31.8,20.3,29.96,WSW,258,10.0,15.0,62,0.00,,,0.00,meteohub,2013-12-16 15:37:00,
2013-12-16 10:42:00,32.0,20.5,29.99,WSW,258,11.0,16.0,62,0.00,,,0.00,meteohub,2013-12-16 15:42:00,
2013-12-16 10:47:00,32.0,20.5,29.99,SSE,168,4.0,22.0,62,0.00,,,0.00,meteohub,2013-12-16 15:47:00,
2013-12-16 10:52:00,32.2,20.7,29.99,SSW,212,11.0,22.0,62,0.00,,,0.00,meteohub,2013-12-16 15:52:00,
2013-12-16 10:57:00,32.2,20.7,29.99,SSW,212,10.0,22.0,62,0.00,,,0.00,meteohub,2013-12-16 15:57:00,
2013-12-16 11:02:00,32.2,20.7,29.99,SW,235,5.0,16.0,62,0.00,,,0.00,meteohub,2013-12-16 16:02:00,
2013-12-16 11:07:00,32.4,20.8,29.99,WNW,302,5.0,16.0,62,0.00,,,0.00,meteohub,2013-12-16 16:07:00,
2013-12-16 11:12:00,32.2,20.7,29.99,WSW,258,8.0,16.0,62,0.00,,,0.00,meteohub,2013-12-16 16:12:00,
2013-12-16 11:17:00,32.5,21.0,29.99,SSE,168,6.0,16.0,62,0.00,,,0.00,meteohub,2013-12-16 16:17:00,
2013-12-16 11:22:00,32.5,20.7,29.99,SSE,168,16.0,16.0,61,0.00,,,0.00,meteohub,2013-12-16 16:22:00,
2013-12-16 11:27:00,32.5,21.0,29.99,SSW,212,6.0,19.0,62,0.00,,,0.00,meteohub,2013-12-16 16:27:00,
2013-12-16 11:32:00,32.7,21.2,29.99,SSW,212,4.0,19.0,62,0.00,,,0.00,meteohub,2013-12-16 16:32:00,
2013-12-16 11:37:00,32.7,21.2,29.99,West,280,5.0,20.0,62,0.00,,,0.00,meteohub,2013-12-16 16:37:00,
2013-12-16 11:42:00,33.1,21.6,29.99,West,280,3.0,20.0,62,0.00,,,0.00,meteohub,2013-12-16 16:42:00,
2013-12-16 11:47:00,32.9,21.4,29.99,WSW,258,9.0,20.0,62,0.00,,,0.00,meteohub,2013-12-16 16:47:00,
2013-12-16 11:52:00,32.9,21.4,29.99,SSW,212,15.0,19.0,62,0.00,,,0.00,meteohub,2013-12-16 16:52:00,
2013-12-16 11:57:00,32.9,21.4,29.99,SW,235,9.0,19.0,62,0.00,,,0.00,meteohub,2013-12-16 16:57:00,
2013-12-16 12:02:00,33.1,21.6,29.99,West,280,4.0,19.0,62,0.00,,,0.00,meteohub,2013-12-16 17:02:00,
2013-12-16 12:07:00,33.1,21.6,29.99,WNW,302,7.0,15.0,62,0.00,,,0.00,meteohub,2013-12-16 17:07:00,
2013-12-16 12:17:00,33.3,22.1,29.96,South,190,6.0,16.0,63,0.00,,,0.00,meteohub,2013-12-16 17:17:00,
2013-12-16 12:22:00,33.4,22.3,29.96,South,190,11.0,13.0,63,0.00,,,0.00,meteohub,2013-12-16 17:22:00,
2013-12-16 12:27:00,33.3,21.7,29.99,SSW,212,5.0,12.0,62,0.00,,,0.00,meteohub,2013-12-16 17:27:00,
2013-12-16 12:32:00,33.3,22.1,29.99,SSW,212,4.0,15.0,63,0.00,,,0.00,meteohub,2013-12-16 17:32:00,
2013-12-16 12:37:00,33.8,22.3,29.99,SW,235,15.0,15.0,62,0.00,,,0.00,meteohub,2013-12-16 17:37:00,
2013-12-16 12:42:00,33.8,22.3,29.96,North,10,7.0,15.0,62,0.00,,,0.00,meteohub,2013-12-16 17:42:00,
2013-12-16 12:47:00,34.0,22.3,29.96,SE,145,5.0,15.0,62,0.00,,,0.00,meteohub,2013-12-16 17:47:00,
2013-12-16 12:52:00,34.2,22.5,29.96,West,280,2.0,15.0,62,0.00,,,0.00,meteohub,2013-12-16 17:52:00,
2013-12-16 12:57:00,34.3,22.6,29.96,WNW,302,4.0,12.0,62,0.00,,,0.00,meteohub,2013-12-16 17:57:00,
2013-12-16 13:02:00,34.3,22.6,29.96,South,190,11.0,12.0,62,0.00,,,0.00,meteohub,2013-12-16 18:02:00,
2013-12-16 13:07:00,34.5,22.8,29.96,SSW,212,4.0,12.0,62,0.00,,,0.00,meteohub,2013-12-16 18:07:00,
2013-12-16 13:12:00,34.5,22.8,29.96,SSE,168,5.0,17.0,62,0.00,,,0.00,meteohub,2013-12-16 18:12:00,
2013-12-16 13:22:00,35.1,23.4,29.96,SSW,212,6.0,17.0,62,0.00,,,0.00,meteohub,2013-12-16 18:22:00,
2013-12-16 13:27:00,35.2,23.2,29.93,South,190,4.0,16.0,61,0.00,,,0.00,meteohub,2013-12-16 18:27:00,
2013-12-16 13:32:00,35.1,23.0,29.93,WSW,258,8.0,16.0,61,0.00,,,0.00,meteohub,2013-12-16 18:32:00,
2013-12-16 13:37:00,35.2,23.2,29.93,East,100,2.0,13.0,61,0.00,,,0.00,meteohub,2013-12-16 18:37:00,
2013-12-16 13:42:00,35.4,23.0,29.96,SSE,168,5.0,20.0,60,0.00,,,0.00,meteohub,2013-12-16 18:42:00,
2013-12-16 13:47:00,35.6,23.2,29.96,SE,145,11.0,20.0,60,0.00,,,0.00,meteohub,2013-12-16 18:47:00,
2013-12-16 13:52:00,35.6,22.6,29.96,SW,235,6.0,15.0,59,0.00,,,0.00,meteohub,2013-12-16 18:52:00,
2013-12-16 13:57:00,35.6,22.6,29.93,WSW,258,8.0,15.0,59,0.00,,,0.00,meteohub,2013-12-16 18:57:00,
2013-12-16 14:02:00,35.6,22.6,29.93,WSW,258,6.0,14.0,59,0.00,,,0.00,meteohub,2013-12-16 19:02:00,
2013-12-16 14:07:00,35.6,22.6,29.93,WSW,258,11.0,14.0,59,0.00,,,0.00,meteohub,2013-12-16 19:07:00,
2013-12-16 14:12:00,35.6,22.6,29.90,WSW,258,8.0,17.0,59,0.00,,,0.00,meteohub,2013-12-16 19:12:00,
2013-12-16 14:17:00,35.6,22.6,29.90,ESE,122,6.0,17.0,59,0.00,,,0.00,meteohub,2013-12-16 19:17:00,
2013-12-16 14:22:00,36.0,23.0,29.90,SSW,212,5.0,17.0,59,0.00,,,0.00,meteohub,2013-12-16 19:22:00,
2013-12-16 14:27:00,36.0,22.6,29.93,South,190,7.0,17.0,58,0.00,,,0.00,meteohub,2013-12-16 19:27:00,
2013-12-16 14:32:00,36.0,22.6,29.93,West,280,4.0,17.0,58,0.04,,,0.04,meteohub,2013-12-16 19:32:00,
2013-12-16 14:37:00,36.1,23.2,29.93,WSW,258,5.0,12.0,59,0.04,,,0.04,meteohub,2013-12-16 19:37:00,
2013-12-16 14:42:00,36.1,22.8,29.93,West,280,11.0,12.0,58,0.04,,,0.04,meteohub,2013-12-16 19:42:00,
2013-12-16 14:47:00,36.1,22.8,29.93,WNW,302,8.0,14.0,58,0.04,,,0.04,meteohub,2013-12-16 19:47:00,
2013-12-16 14:52:00,36.1,22.8,29.93,SW,235,7.0,16.0,58,0.04,,,0.04,meteohub,2013-12-16 19:52:00,
2013-12-16 14:57:00,36.3,23.0,29.93,SW,235,4.0,16.0,58,0.04,,,0.04,meteohub,2013-12-16 19:57:00,
2013-12-16 15:02:00,36.5,23.2,29.93,SSW,212,11.0,15.0,58,0.04,,,0.04,meteohub,2013-12-16 20:02:00,
2013-12-16 15:07:00,36.7,23.4,29.93,South,190,5.0,15.0,58,0.04,,,0.04,meteohub,2013-12-16 20:07:00,
2013-12-16 15:12:00,36.7,23.4,29.93,SE,145,5.0,13.0,58,0.04,,,0.04,meteohub,2013-12-16 20:12:00,
2013-12-16 15:17:00,36.7,23.4,29.93,SSW,212,5.0,13.0,58,0.04,,,0.04,meteohub,2013-12-16 20:17:00,
2013-12-16 15:22:00,36.7,23.4,29.93,WSW,258,7.0,10.0,58,0.04,,,0.04,meteohub,2013-12-16 20:22:00,
2013-12-16 15:27:00,36.7,23.4,29.96,SSW,212,6.0,9.0,58,0.00,,,0.04,meteohub,2013-12-16 20:27:00,
2013-12-16 15:32:00,36.9,23.5,29.96,WNW,302,2.0,9.0,58,0.00,,,0.04,meteohub,2013-12-16 20:32:00,
2013-12-16 15:37:00,37.0,23.7,29.96,West,280,5.0,9.0,58,0.00,,,0.04,meteohub,2013-12-16 20:37:00,
2013-12-16 15:42:00,37.0,23.7,29.96,WNW,302,0.0,7.0,58,0.00,,,0.04,meteohub,2013-12-16 20:42:00,
2013-12-16 15:47:00,37.0,23.7,29.96,NNW,348,6.0,7.0,58,0.00,,,0.04,meteohub,2013-12-16 20:47:00,
2013-12-16 15:52:00,36.9,23.2,29.96,West,280,6.0,7.0,57,0.00,,,0.04,meteohub,2013-12-16 20:52:00,
2013-12-16 15:57:00,36.9,23.2,29.93,NNW,348,2.0,7.0,57,0.00,,,0.04,meteohub,2013-12-16 20:57:00,
2013-12-16 16:02:00,37.0,23.2,29.93,NNW,348,0.0,8.0,57,0.00,,,0.04,meteohub,2013-12-16 21:02:00,
2013-12-16 16:07:00,36.9,23.2,29.93,WNW,302,0.0,8.0,57,0.00,,,0.04,meteohub,2013-12-16 21:07:00,
2013-12-16 16:12:00,36.9,23.2,29.93,South,190,0.0,5.0,57,0.00,,,0.04,meteohub,2013-12-16 21:12:00,
2013-12-16 16:17:00,37.0,23.7,29.93,SSE,168,0.0,5.0,58,0.00,,,0.04,meteohub,2013-12-16 21:17:00,
2013-12-16 16:22:00,36.9,23.5,29.93,South,190,0.0,3.0,58,0.00,,,0.04,meteohub,2013-12-16 21:22:00,
2013-12-16 16:27:00,36.9,23.9,29.93,South,190,0.0,0.0,59,0.00,,,0.04,meteohub,2013-12-16 21:27:00,
2013-12-16 16:32:00,36.7,24.1,29.93,SSE,168,0.0,0.0,60,0.00,,,0.04,meteohub,2013-12-16 21:32:00,
2013-12-16 16:37:00,36.5,23.9,29.93,SSE,168,0.0,0.0,60,0.00,,,0.04,meteohub,2013-12-16 21:37:00,
2013-12-16 16:47:00,36.3,24.3,29.93,SE,145,4.0,5.0,61,0.00,,,0.04,meteohub,2013-12-16 21:47:00,
2013-12-16 16:52:00,36.0,23.9,29.93,SE,145,5.0,5.0,61,0.00,,,0.04,meteohub,2013-12-16 21:52:00,
2013-12-16 16:57:00,35.8,23.7,29.93,SE,145,4.0,6.0,61,0.00,,,0.04,meteohub,2013-12-16 21:57:00,
2013-12-16 17:02:00,35.6,23.5,29.93,SE,145,5.0,6.0,61,0.00,,,0.04,meteohub,2013-12-16 22:02:00,
2013-12-16 17:07:00,35.4,23.4,29.93,SE,145,0.0,6.0,61,0.00,,,0.04,meteohub,2013-12-16 22:07:00,
2013-12-16 17:12:00,35.4,23.4,29.93,SE,145,0.0,6.0,61,0.00,,,0.04,meteohub,2013-12-16 22:12:00,
2013-12-16 17:17:00,35.1,23.0,29.93,SE,145,3.0,6.0,61,0.00,,,0.04,meteohub,2013-12-16 22:17:00,
2013-12-16 17:22:00,35.1,23.4,29.93,SE,145,4.0,4.0,62,0.00,,,0.04,meteohub,2013-12-16 22:22:00,
2013-12-16 17:27:00,34.9,23.2,29.96,SE,145,4.0,5.0,62,0.00,,,0.04,meteohub,2013-12-16 22:27:00,
2013-12-16 17:32:00,34.7,23.0,29.96,SE,145,0.0,5.0,62,0.00,,,0.04,meteohub,2013-12-16 22:32:00,
2013-12-16 17:37:00,34.5,22.8,29.96,SSE,168,0.0,5.0,62,0.00,,,0.04,meteohub,2013-12-16 22:37:00,
2013-12-16 17:42:00,34.3,22.6,29.96,SSE,168,0.0,4.0,62,0.00,,,0.04,meteohub,2013-12-16 22:42:00,
2013-12-16 17:52:00,34.0,22.8,29.96,SE,145,0.0,0.0,63,0.00,,,0.04,meteohub,2013-12-16 22:52:00,
2013-12-16 17:57:00,34.0,22.8,29.96,SE,145,0.0,0.0,63,0.00,,,0.04,meteohub,2013-12-16 22:57:00,
2013-12-16 18:02:00,34.0,22.8,29.96,SE,145,0.0,0.0,63,0.00,,,0.04,meteohub,2013-12-16 23:02:00,
2013-12-16 18:07:00,33.8,22.6,29.96,South,190,3.0,0.0,63,0.00,,,0.04,meteohub,2013-12-16 23:07:00,
2013-12-16 18:12:00,33.8,23.0,29.96,South,190,0.0,4.0,64,0.00,,,0.04,meteohub,2013-12-16 23:12:00,
2013-12-16 18:17:00,33.6,23.2,29.96,ENE,78,0.0,4.0,65,0.00,,,0.04,meteohub,2013-12-16 23:17:00,
2013-12-16 18:22:00,33.6,23.2,29.96,ENE,78,0.0,4.0,65,0.00,,,0.04,meteohub,2013-12-16 23:22:00,
2013-12-16 18:27:00,33.4,23.0,29.96,North,10,0.0,0.0,65,0.00,,,0.04,meteohub,2013-12-16 23:27:00,
2013-12-16 18:32:00,33.3,23.2,29.96,WNW,302,0.0,0.0,66,0.00,,,0.04,meteohub,2013-12-16 23:32:00,
2013-12-16 18:37:00,33.1,23.0,29.96,SE,145,4.0,5.0,66,0.00,,,0.04,meteohub,2013-12-16 23:37:00,
2013-12-16 18:42:00,33.3,23.2,29.96,WNW,302,0.0,5.0,66,0.00,,,0.04,meteohub,2013-12-16 23:42:00,
2013-12-16 18:47:00,33.1,23.4,29.96,SSE,168,0.0,5.0,67,0.00,,,0.04,meteohub,2013-12-16 23:47:00,
2013-12-16 18:52:00,33.1,23.4,29.96,ESE,122,0.0,5.0,67,0.00,,,0.04,meteohub,2013-12-16 23:52:00,
2013-12-16 18:57:00,33.1,23.4,29.96,NNE,32,4.0,0.0,67,0.00,,,0.04,meteohub,2013-12-16 23:57:00,
2013-12-16 19:02:00,33.1,23.4,29.96,East,100,3.0,5.0,67,0.00,,,0.04,meteohub,2013-12-17 00:02:00,
2013-12-16 19:07:00,33.1,23.7,29.96,East,100,0.0,5.0,68,0.00,,,0.04,meteohub,2013-12-17 00:07:00,
2013-12-16 19:12:00,33.1,23.7,29.99,East,100,0.0,5.0,68,0.00,,,0.04,meteohub,2013-12-17 00:12:00,
2013-12-16 19:17:00,32.9,23.2,29.99,ENE,78,0.0,4.0,67,0.00,,,0.04,meteohub,2013-12-17 00:17:00,
2013-12-16 19:22:00,32.9,23.5,29.99,ENE,78,0.0,4.0,68,0.00,,,0.04,meteohub,2013-12-17 00:22:00,
2013-12-16 19:27:00,33.1,23.7,29.99,ENE,78,0.0,0.0,68,0.00,,,0.04,meteohub,2013-12-17 00:27:00,
2013-12-16 19:32:00,32.9,23.5,29.99,ENE,78,0.0,3.0,68,0.00,,,0.04,meteohub,2013-12-17 00:32:00,
2013-12-16 19:37:00,32.7,23.7,29.99,NNW,348,4.0,4.0,69,0.00,,,0.04,meteohub,2013-12-17 00:37:00,
2013-12-16 19:42:00,32.7,23.7,29.99,WSW,258,0.0,4.0,69,0.00,,,0.04,meteohub,2013-12-17 00:42:00,
2013-12-16 19:47:00,32.7,23.7,29.99,WSW,258,0.0,4.0,69,0.00,,,0.04,meteohub,2013-12-17 00:47:00,
2013-12-16 19:52:00,32.5,23.5,29.99,South,190,0.0,4.0,69,0.00,,,0.04,meteohub,2013-12-17 00:52:00,
2013-12-16 19:57:00,32.7,24.1,29.99,SE,145,0.0,0.0,70,0.00,,,0.04,meteohub,2013-12-17 00:57:00,
2013-12-16 20:02:00,32.7,24.1,29.99,NNW,348,0.0,0.0,70,0.00,,,0.04,meteohub,2013-12-17 01:02:00,
2013-12-16 20:07:00,32.5,23.9,29.99,NNW,348,0.0,0.0,70,0.00,,,0.04,meteohub,2013-12-17 01:07:00,
2013-12-16 20:12:00,32.5,23.9,29.99,NE,55,0.0,0.0,70,0.00,,,0.04,meteohub,2013-12-17 01:12:00,
2013-12-16 20:17:00,32.4,23.7,29.99,NNW,348,0.0,0.0,70,0.00,,,0.04,meteohub,2013-12-17 01:17:00,
2013-12-16 20:22:00,32.5,23.9,29.99,NNW,348,0.0,0.0,70,0.00,,,0.04,meteohub,2013-12-17 01:22:00,
2013-12-16 20:27:00,32.2,23.5,29.99,WNW,302,0.0,0.0,70,0.00,,,0.04,meteohub,2013-12-17 01:27:00,
2013-12-16 20:32:00,32.2,23.5,29.99,South,190,0.0,0.0,70,0.00,,,0.04,meteohub,2013-12-17 01:32:00,
2013-12-16 20:37:00,32.2,23.5,29.99,South,190,0.0,0.0,70,0.00,,,0.04,meteohub,2013-12-17 01:37:00,
2013-12-16 20:47:00,32.2,23.9,29.99,South,190,0.0,0.0,71,0.00,,,0.04,meteohub,2013-12-17 01:47:00,
2013-12-16 20:52:00,32.0,23.7,29.99,SSE,168,0.0,0.0,71,0.00,,,0.04,meteohub,2013-12-17 01:52:00,
2013-12-16 20:57:00,32.0,23.7,29.99,SSE,168,0.0,0.0,71,0.00,,,0.04,meteohub,2013-12-17 01:57:00,
2013-12-16 21:02:00,32.0,23.7,29.99,WNW,302,0.0,0.0,71,0.00,,,0.04,meteohub,2013-12-17 02:02:00,
2013-12-16 21:07:00,31.5,22.8,29.99,ESE,122,0.0,0.0,70,0.00,,,0.04,meteohub,2013-12-17 02:07:00,
2013-12-16 21:12:00,31.6,23.4,29.99,West,280,0.0,0.0,71,0.00,,,0.04,meteohub,2013-12-17 02:12:00,
2013-12-16 21:17:00,31.5,23.2,29.99,West,280,0.0,0.0,71,0.00,,,0.04,meteohub,2013-12-17 02:17:00,
2013-12-16 21:22:00,31.5,23.2,29.99,SE,145,0.0,0.0,71,0.00,,,0.04,meteohub,2013-12-17 02:22:00,
2013-12-16 21:27:00,31.5,23.5,29.99,SE,145,0.0,0.0,72,0.00,,,0.04,meteohub,2013-12-17 02:27:00,
2013-12-16 21:32:00,31.3,23.4,29.99,SSE,168,0.0,0.0,72,0.00,,,0.04,meteohub,2013-12-17 02:32:00,
2013-12-16 21:37:00,31.3,23.4,29.99,SSE,168,0.0,0.0,72,0.00,,,0.04,meteohub,2013-12-17 02:37:00,
2013-12-16 21:42:00,31.3,23.4,29.99,SE,145,0.0,0.0,72,0.00,,,0.04,meteohub,2013-12-17 02:42:00,
2013-12-16 21:47:00,31.3,23.4,29.99,SE,145,0.0,0.0,72,0.00,,,0.04,meteohub,2013-12-17 02:47:00,
2013-12-16 21:52:00,31.3,23.4,29.99,SE,145,0.0,0.0,72,0.00,,,0.04,meteohub,2013-12-17 02:52:00,
2013-12-16 21:57:00,31.3,23.4,29.99,SE,145,0.0,0.0,72,0.00,,,0.04,meteohub,2013-12-17 02:57:00,
2013-12-16 22:02:00,31.1,23.2,29.99,East,100,0.0,0.0,72,0.00,,,0.04,meteohub,2013-12-17 03:02:00,
2013-12-16 22:07:00,30.9,23.0,29.99,East,100,0.0,0.0,72,0.00,,,0.04,meteohub,2013-12-17 03:07:00,
2013-12-16 22:12:00,30.9,23.0,29.99,ENE,78,0.0,0.0,72,0.00,,,0.04,meteohub,2013-12-17 03:12:00,
2013-12-16 22:17:00,30.7,22.8,29.99,ENE,78,0.0,0.0,72,0.00,,,0.04,meteohub,2013-12-17 03:17:00,
2013-12-16 22:22:00,30.7,22.8,29.99,ENE,78,0.0,0.0,72,0.00,,,0.04,meteohub,2013-12-17 03:22:00,
2013-12-16 22:27:00,30.4,22.5,29.99,SSW,212,0.0,0.0,72,0.00,,,0.04,meteohub,2013-12-17 03:27:00,
2013-12-16 22:32:00,30.2,22.6,29.99,SSE,168,0.0,0.0,73,0.00,,,0.04,meteohub,2013-12-17 03:32:00,
2013-12-16 22:37:00,30.2,22.6,29.99,SSE,168,0.0,0.0,73,0.00,,,0.04,meteohub,2013-12-17 03:37:00,
2013-12-16 22:42:00,30.0,22.5,29.99,SE,145,0.0,0.0,73,0.00,,,0.04,meteohub,2013-12-17 03:42:00,
2013-12-16 22:47:00,29.8,22.3,29.99,South,190,0.0,0.0,73,0.00,,,0.04,meteohub,2013-12-17 03:47:00,
2013-12-16 22:52:00,29.8,22.3,29.99,South,190,0.0,0.0,73,0.00,,,0.04,meteohub,2013-12-17 03:52:00,
2013-12-16 22:57:00,29.5,21.9,29.99,SSW,212,0.0,0.0,73,0.00,,,0.04,meteohub,2013-12-17 03:57:00,
2013-12-16 23:02:00,29.5,22.3,29.99,South,190,0.0,0.0,74,0.00,,,0.04,meteohub,2013-12-17 04:02:00,
2013-12-16 23:07:00,29.5,22.3,29.99,South,190,0.0,0.0,74,0.00,,,0.04,meteohub,2013-12-17 04:07:00,
2013-12-16 23:12:00,29.3,22.1,29.96,South,190,0.0,0.0,74,0.00,,,0.04,meteohub,2013-12-17 04:12:00,
2013-12-16 23:17:00,29.3,22.1,29.96,SE,145,0.0,0.0,74,0.00,,,0.04,meteohub,2013-12-17 04:17:00,
2013-12-16 23:22:00,29.1,21.9,29.96,SE,145,0.0,0.0,74,0.00,,,0.04,meteohub,2013-12-17 04:22:00,
2013-12-16 23:27:00,28.9,21.7,29.96,SE,145,0.0,0.0,74,0.00,,,0.04,meteohub,2013-12-17 04:27:00,
2013-12-16 23:32:00,28.8,21.6,29.96,South,190,0.0,0.0,74,0.00,,,0.04,meteohub,2013-12-17 04:32:00,
2013-12-16 23:37:00,28.6,21.4,29.96,ESE,122,0.0,0.0,74,0.00,,,0.04,meteohub,2013-12-17 04:37:00,
2013-12-16 23:42:00,28.8,21.9,29.96,ESE,122,0.0,0.0,75,0.00,,,0.04,meteohub,2013-12-17 04:42:00,
2013-12-16 23:47:00,28.6,21.7,29.96,ESE,122,0.0,0.0,75,0.00,,,0.04,meteohub,2013-12-17 04:47:00,
2013-12-16 23:52:00,28.6,21.7,29.96,SW,235,0.0,0.0,75,0.00,,,0.04,meteohub,2013-12-17 04:52:00,
2013-12-16 23:57:00,28.4,21.6,29.96,South,190,0.0,0.0,75,0.00,,,0.04,meteohub,2013-12-17 04:57:00,